owner,sensor,date,latitude,longitude,vertical_datum,wind_speed,wind_to_direction,wind_speed_of_gust,qcFlag 
WAVCIS,ioos:station:WAVCIS:CSI09:1,2012-02-01T00:00:00Z,29.1015,-89.9782,0.0,4.686,116.0,,'11111222,11111222,99999999' 
WAVCIS,ioos:station:WAVCIS:CSI09:1,2012-02-01T01:00:00Z,29.1015,-89.9782,0.0,6.175,134.0,,'11111222,11111222,99999999' 
WAVCIS,ioos:station:WAVCIS:CSI09:1,2012-02-01T02:00:00Z,29.1015,-89.9782,0.0,6.085,130.0,,'11111222,11111222,99999999' 
WAVCIS,ioos:station:WAVCIS:CSI09:1,2012-02-01T03:00:00Z,29.1015,-89.9782,0.0,6.511,134.0,,'11111222,11111222,99999999' 
WAVCIS,ioos:station:WAVCIS:CSI09:1,2012-02-01T04:00:00Z,29.1015,-89.9782,0.0,6.074,131.0,,'11111222,11111222,99999999' 
WAVCIS,ioos:station:WAVCIS:CSI09:1,2012-02-01T05:00:00Z,29.1015,-89.9782,0.0,6.374,130.0,,'11111222,11111222,99999999' 
WAVCIS,ioos:station:WAVCIS:CSI09:1,2012-02-01T06:00:00Z,29.1015,-89.9782,0.0,7.65,138.0,,'11111222,11111222,99999999' 
WAVCIS,ioos:station:WAVCIS:CSI09:1,2012-02-01T07:00:00Z,29.1015,-89.9782,0.0,8.75,139.0,,'11111222,11111222,99999999' 
WAVCIS,ioos:station:WAVCIS:CSI09:1,2012-02-01T08:00:00Z,29.1015,-89.9782,0.0,6.979,145.0,,'11111222,11111222,99999999' 
WAVCIS,ioos:station:WAVCIS:CSI09:1,2012-02-01T09:00:00Z,29.1015,-89.9782,0.0,7.62,146.0,,'11111222,11111222,99999999' 
WAVCIS,ioos:station:WAVCIS:CSI09:1,2012-02-01T10:00:00Z,29.1015,-89.9782,0.0,6.423,153.0,,'11111222,11111222,99999999' 
WAVCIS,ioos:station:WAVCIS:CSI09:1,2012-02-01T11:00:00Z,29.1015,-89.9782,0.0,5.368,150.0,,'11111222,11111222,99999999' 
WAVCIS,ioos:station:WAVCIS:CSI09:1,2012-02-01T12:00:00Z,29.1015,-89.9782,0.0,8.39,151.0,,'11111222,11111222,99999999' 
WAVCIS,ioos:station:WAVCIS:CSI09:1,2012-02-01T13:00:00Z,29.1015,-89.9782,0.0,8.25,143.0,,'11111222,11111222,99999999' 
WAVCIS,ioos:station:WAVCIS:CSI09:1,2012-02-01T14:00:00Z,29.1015,-89.9782,0.0,5.875,143.0,,'11111222,11111222,99999999' 
WAVCIS,ioos:station:WAVCIS:CSI09:1,2012-02-01T15:00:00Z,29.1015,-89.9782,0.0,7.27,157.0,,'11111222,11111222,99999999' 
WAVCIS,ioos:station:WAVCIS:CSI09:1,2012-02-01T16:00:00Z,29.1015,-89.9782,0.0,7.11,174.0,,'11111222,11111222,99999999' 
WAVCIS,ioos:station:WAVCIS:CSI09:1,2012-02-01T17:00:00Z,29.1015,-89.9782,0.0,6.637,169.0,,'11111222,11111222,99999999' 
WAVCIS,ioos:station:WAVCIS:CSI09:1,2012-02-01T18:00:00Z,29.1015,-89.9782,0.0,6.671,163.0,,'11111222,11111222,99999999' 
WAVCIS,ioos:station:WAVCIS:CSI09:1,2012-02-01T19:00:00Z,29.1015,-89.9782,0.0,4.906,139.0,,'11111222,11111222,99999999' 
WAVCIS,ioos:station:WAVCIS:CSI09:1,2012-02-01T20:00:00Z,29.1015,-89.9782,0.0,6.006,162.0,,'11111222,11111222,99999999' 
WAVCIS,ioos:station:WAVCIS:CSI09:1,2012-02-01T21:00:00Z,29.1015,-89.9782,0.0,6.833,160.0,,'11111222,11111222,99999999' 
WAVCIS,ioos:station:WAVCIS:CSI09:1,2012-02-01T22:00:00Z,29.1015,-89.9782,0.0,4.719,163.0,,'11111222,11111222,99999999' 
WAVCIS,ioos:station:WAVCIS:CSI09:1,2012-02-01T23:00:00Z,29.1015,-89.9782,0.0,4.301,152.0,,'11111222,11111222,99999999' 
WAVCIS,ioos:station:WAVCIS:CSI09:1,2012-02-02T00:00:00Z,29.1015,-89.9782,0.0,5.108,159.0,,'11111222,11111222,99999999' 
WAVCIS,ioos:station:WAVCIS:CSI09:1,2012-02-02T01:00:00Z,29.1015,-89.9782,0.0,5.502,170.0,,'11111222,11111222,99999999' 
WAVCIS,ioos:station:WAVCIS:CSI09:1,2012-02-02T02:00:00Z,29.1015,-89.9782,0.0,5.894,171.0,,'11111222,11111222,99999999' 
WAVCIS,ioos:station:WAVCIS:CSI09:1,2012-02-02T03:00:00Z,29.1015,-89.9782,0.0,5.333,158.0,,'11111222,11111222,99999999' 
WAVCIS,ioos:station:WAVCIS:CSI09:1,2012-02-02T04:00:00Z,29.1015,-89.9782,0.0,5.019,160.0,,'11111222,11111222,99999999' 
WAVCIS,ioos:station:WAVCIS:CSI09:1,2012-02-02T05:00:00Z,29.1015,-89.9782,0.0,4.297,60.0,,'11111222,11111222,99999999' 
WAVCIS,ioos:station:WAVCIS:CSI09:1,2012-02-02T06:00:00Z,29.1015,-89.9782,0.0,4.855,74.0,,'11111222,11111222,99999999' 
WAVCIS,ioos:station:WAVCIS:CSI09:1,2012-02-02T07:00:00Z,29.1015,-89.9782,0.0,5.546,97.0,,'11111222,11111222,99999999' 
WAVCIS,ioos:station:WAVCIS:CSI09:1,2012-02-02T08:00:00Z,29.1015,-89.9782,0.0,7.34,118.0,,'11111222,11111222,99999999' 
WAVCIS,ioos:station:WAVCIS:CSI09:1,2012-02-02T09:00:00Z,29.1015,-89.9782,0.0,5.873,108.0,,'11111222,11111222,99999999' 
WAVCIS,ioos:station:WAVCIS:CSI09:1,2012-02-02T10:00:00Z,29.1015,-89.9782,0.0,5.435,110.0,,'11111222,11111222,99999999' 
WAVCIS,ioos:station:WAVCIS:CSI09:1,2012-02-02T11:00:00Z,29.1015,-89.9782,0.0,5.154,90.0,,'11111222,11111222,99999999' 
WAVCIS,ioos:station:WAVCIS:CSI09:1,2012-02-02T12:00:00Z,29.1015,-89.9782,0.0,4.467,98.0,,'11111222,11111222,99999999' 
WAVCIS,ioos:station:WAVCIS:CSI09:1,2012-02-02T13:00:00Z,29.1015,-89.9782,0.0,5.385,108.0,,'11111222,11111222,99999999' 
WAVCIS,ioos:station:WAVCIS:CSI09:1,2012-02-02T14:00:00Z,29.1015,-89.9782,0.0,4.27,109.0,,'11111222,11111222,99999999' 
WAVCIS,ioos:station:WAVCIS:CSI09:1,2012-02-02T15:00:00Z,29.1015,-89.9782,0.0,4.572,110.0,,'11111222,11111222,99999999' 
WAVCIS,ioos:station:WAVCIS:CSI09:1,2012-02-02T16:00:00Z,29.1015,-89.9782,0.0,3.725,103.0,,'11111222,11111222,99999999' 
WAVCIS,ioos:station:WAVCIS:CSI09:1,2012-02-02T17:00:00Z,29.1015,-89.9782,0.0,3.301,104.0,,'11111222,11111222,99999999' 
WAVCIS,ioos:station:WAVCIS:CSI09:1,2012-02-02T18:00:00Z,29.1015,-89.9782,0.0,4.019,51.0,,'11111222,11111222,99999999' 
WAVCIS,ioos:station:WAVCIS:CSI09:1,2012-02-02T19:00:00Z,29.1015,-89.9782,0.0,5.28,64.0,,'11111222,11111222,99999999' 
WAVCIS,ioos:station:WAVCIS:CSI09:1,2012-02-02T20:00:00Z,29.1015,-89.9782,0.0,6.209,55.0,,'11111222,11111222,99999999' 
WAVCIS,ioos:station:WAVCIS:CSI09:1,2012-02-02T21:00:00Z,29.1015,-89.9782,0.0,5.585,72.0,,'11111222,11111222,99999999' 
WAVCIS,ioos:station:WAVCIS:CSI09:1,2012-02-02T22:00:00Z,29.1015,-89.9782,0.0,6.104,66.0,,'11111222,11111222,99999999' 
WAVCIS,ioos:station:WAVCIS:CSI09:1,2012-02-02T23:00:00Z,29.1015,-89.9782,0.0,7.73,75.0,,'11111222,11111222,99999999' 
WAVCIS,ioos:station:WAVCIS:CSI09:1,2012-02-03T00:00:00Z,29.1015,-89.9782,0.0,8.5,77.0,,'11111222,11111222,99999999' 
WAVCIS,ioos:station:WAVCIS:CSI09:1,2012-02-03T01:00:00Z,29.1015,-89.9782,0.0,8.4,79.0,,'11111222,11111222,99999999' 
WAVCIS,ioos:station:WAVCIS:CSI09:1,2012-02-03T02:00:00Z,29.1015,-89.9782,0.0,8.13,87.0,,'11111222,11111222,99999999' 
WAVCIS,ioos:station:WAVCIS:CSI09:1,2012-02-03T03:00:00Z,29.1015,-89.9782,0.0,7.54,91.0,,'11111222,11111222,99999999' 
WAVCIS,ioos:station:WAVCIS:CSI09:1,2012-02-03T04:00:00Z,29.1015,-89.9782,0.0,8.75,89.0,,'11111222,11111222,99999999' 
WAVCIS,ioos:station:WAVCIS:CSI09:1,2012-02-03T05:00:00Z,29.1015,-89.9782,0.0,8.87,83.0,,'11111222,11111222,99999999' 
WAVCIS,ioos:station:WAVCIS:CSI09:1,2012-02-03T06:00:00Z,29.1015,-89.9782,0.0,8.0,79.0,,'11111222,11111222,99999999' 
WAVCIS,ioos:station:WAVCIS:CSI09:1,2012-02-03T07:00:00Z,29.1015,-89.9782,0.0,8.47,81.0,,'11111222,11111222,99999999' 
WAVCIS,ioos:station:WAVCIS:CSI09:1,2012-02-03T08:00:00Z,29.1015,-89.9782,0.0,8.97,86.0,,'11111222,11111222,99999999' 
WAVCIS,ioos:station:WAVCIS:CSI09:1,2012-02-03T09:00:00Z,29.1015,-89.9782,0.0,7.19,93.0,,'11111222,11111222,99999999' 
WAVCIS,ioos:station:WAVCIS:CSI09:1,2012-02-03T10:00:00Z,29.1015,-89.9782,0.0,7.34,96.0,,'11111222,11111222,99999999' 
WAVCIS,ioos:station:WAVCIS:CSI09:1,2012-02-03T11:00:00Z,29.1015,-89.9782,0.0,7.5,96.0,,'11111222,11111222,99999999' 
WAVCIS,ioos:station:WAVCIS:CSI09:1,2012-02-03T12:00:00Z,29.1015,-89.9782,0.0,7.57,107.0,,'11111222,11111222,99999999' 
WAVCIS,ioos:station:WAVCIS:CSI09:1,2012-02-03T13:00:00Z,29.1015,-89.9782,0.0,6.997,107.0,,'11111222,11111222,99999999' 
WAVCIS,ioos:station:WAVCIS:CSI09:1,2012-02-03T14:00:00Z,29.1015,-89.9782,0.0,8.98,115.0,,'11111222,11111222,99999999' 
WAVCIS,ioos:station:WAVCIS:CSI09:1,2012-02-03T15:00:00Z,29.1015,-89.9782,0.0,7.05,104.0,,'11111222,11111222,99999999' 
WAVCIS,ioos:station:WAVCIS:CSI09:1,2012-02-03T16:00:00Z,29.1015,-89.9782,0.0,5.597,87.0,,'11111222,11111222,99999999' 
WAVCIS,ioos:station:WAVCIS:CSI09:1,2012-02-03T17:00:00Z,29.1015,-89.9782,0.0,4.827,91.0,,'11111222,11111222,99999999' 
WAVCIS,ioos:station:WAVCIS:CSI09:1,2012-02-03T18:00:00Z,29.1015,-89.9782,0.0,3.524,81.0,,'11111222,11111222,99999999' 
WAVCIS,ioos:station:WAVCIS:CSI09:1,2012-02-03T19:00:00Z,29.1015,-89.9782,0.0,3.725,78.0,,'11111222,11111222,99999999' 
WAVCIS,ioos:station:WAVCIS:CSI09:1,2012-02-03T20:00:00Z,29.1015,-89.9782,0.0,4.426,91.0,,'11111222,11111222,99999999' 
WAVCIS,ioos:station:WAVCIS:CSI09:1,2012-02-03T21:00:00Z,29.1015,-89.9782,0.0,5.702,105.0,,'11111222,11111222,99999999' 
WAVCIS,ioos:station:WAVCIS:CSI09:1,2012-02-03T22:00:00Z,29.1015,-89.9782,0.0,5.39,94.0,,'11111222,11111222,99999999' 
WAVCIS,ioos:station:WAVCIS:CSI09:1,2012-02-03T23:00:00Z,29.1015,-89.9782,0.0,5.44,90.0,,'11111222,11111222,99999999' 
WAVCIS,ioos:station:WAVCIS:CSI09:1,2012-02-04T00:00:00Z,29.1015,-89.9782,0.0,6.177,88.0,,'11111222,11111222,99999999' 
WAVCIS,ioos:station:WAVCIS:CSI09:1,2012-02-04T01:00:00Z,29.1015,-89.9782,0.0,6.749,86.0,,'11111222,11111222,99999999' 
WAVCIS,ioos:station:WAVCIS:CSI09:1,2012-02-04T02:00:00Z,29.1015,-89.9782,0.0,6.129,90.0,,'11111222,11111222,99999999' 
WAVCIS,ioos:station:WAVCIS:CSI09:1,2012-02-04T03:00:00Z,29.1015,-89.9782,0.0,5.578,95.0,,'11111222,11111222,99999999' 
WAVCIS,ioos:station:WAVCIS:CSI09:1,2012-02-04T04:00:00Z,29.1015,-89.9782,0.0,6.612,110.0,,'11111222,11111222,99999999' 
WAVCIS,ioos:station:WAVCIS:CSI09:1,2012-02-04T05:00:00Z,29.1015,-89.9782,0.0,5.697,108.0,,'11111222,11111222,99999999' 
WAVCIS,ioos:station:WAVCIS:CSI09:1,2012-02-04T06:00:00Z,29.1015,-89.9782,0.0,6.687,121.0,,'11111222,11111222,99999999' 
WAVCIS,ioos:station:WAVCIS:CSI09:1,2012-02-04T07:00:00Z,29.1015,-89.9782,0.0,5.731,126.0,,'11111222,11111222,99999999' 
WAVCIS,ioos:station:WAVCIS:CSI09:1,2012-02-04T08:00:00Z,29.1015,-89.9782,0.0,7.11,132.0,,'11111222,11111222,99999999' 
WAVCIS,ioos:station:WAVCIS:CSI09:1,2012-02-04T09:00:00Z,29.1015,-89.9782,0.0,6.295,138.0,,'11111222,11111222,99999999' 
WAVCIS,ioos:station:WAVCIS:CSI09:1,2012-02-04T10:00:00Z,29.1015,-89.9782,0.0,5.61,137.0,,'11111222,11111222,99999999' 
WAVCIS,ioos:station:WAVCIS:CSI09:1,2012-02-04T11:00:00Z,29.1015,-89.9782,0.0,5.65,132.0,,'11111222,11111222,99999999' 
WAVCIS,ioos:station:WAVCIS:CSI09:1,2012-02-04T12:00:00Z,29.1015,-89.9782,0.0,6.58,116.0,,'11111222,11111222,99999999' 
WAVCIS,ioos:station:WAVCIS:CSI09:1,2012-02-04T13:00:00Z,29.1015,-89.9782,0.0,7.52,120.0,,'11111222,11111222,99999999' 
WAVCIS,ioos:station:WAVCIS:CSI09:1,2012-02-04T14:00:00Z,29.1015,-89.9782,0.0,6.21,133.0,,'11111222,11111222,99999999' 
WAVCIS,ioos:station:WAVCIS:CSI09:1,2012-02-04T15:00:00Z,29.1015,-89.9782,0.0,7.49,134.0,,'11111222,11111222,99999999' 
WAVCIS,ioos:station:WAVCIS:CSI09:1,2012-02-04T16:00:00Z,29.1015,-89.9782,0.0,7.3,141.0,,'11111222,11111222,99999999' 
WAVCIS,ioos:station:WAVCIS:CSI09:1,2012-02-04T17:00:00Z,29.1015,-89.9782,0.0,5.645,139.0,,'11111222,11111222,99999999' 
WAVCIS,ioos:station:WAVCIS:CSI09:1,2012-02-04T18:00:00Z,29.1015,-89.9782,0.0,3.34,148.0,,'11111222,11111222,99999999' 
WAVCIS,ioos:station:WAVCIS:CSI09:1,2012-02-04T19:00:00Z,29.1015,-89.9782,0.0,3.432,121.0,,'11111222,11111222,99999999' 
WAVCIS,ioos:station:WAVCIS:CSI09:1,2012-02-04T20:00:00Z,29.1015,-89.9782,0.0,2.882,124.0,,'11111222,11111222,99999999' 
WAVCIS,ioos:station:WAVCIS:CSI09:1,2012-02-04T21:00:00Z,29.1015,-89.9782,0.0,3.41,141.0,,'11111222,11111222,99999999' 
WAVCIS,ioos:station:WAVCIS:CSI09:1,2012-02-04T22:00:00Z,29.1015,-89.9782,0.0,2.387,137.0,,'11111222,11111222,99999999' 
WAVCIS,ioos:station:WAVCIS:CSI09:1,2012-02-04T23:00:00Z,29.1015,-89.9782,0.0,1.546,142.0,,'11111222,11111222,99999999' 
WAVCIS,ioos:station:WAVCIS:CSI09:1,2012-02-05T00:00:00Z,29.1015,-89.9782,0.0,4.766,333.0,,'11111222,11111222,99999999' 
WAVCIS,ioos:station:WAVCIS:CSI09:1,2012-02-05T01:00:00Z,29.1015,-89.9782,0.0,3.881,54.0,,'11111222,11111222,99999999' 
WAVCIS,ioos:station:WAVCIS:CSI09:1,2012-02-05T02:00:00Z,29.1015,-89.9782,0.0,1.147,36.0,,'11111222,11111222,99999999' 
WAVCIS,ioos:station:WAVCIS:CSI09:1,2012-02-05T03:00:00Z,29.1015,-89.9782,0.0,1.812,16.0,,'11111222,11111222,99999999' 
WAVCIS,ioos:station:WAVCIS:CSI09:1,2012-02-05T04:00:00Z,29.1015,-89.9782,0.0,1.631,74.0,,'11111222,11111222,99999999' 
WAVCIS,ioos:station:WAVCIS:CSI09:1,2012-02-05T05:00:00Z,29.1015,-89.9782,0.0,1.144,100.0,,'11111222,11111222,99999999' 
WAVCIS,ioos:station:WAVCIS:CSI09:1,2012-02-05T06:00:00Z,29.1015,-89.9782,0.0,0.792,199.0,,'11111222,11111222,99999999' 
WAVCIS,ioos:station:WAVCIS:CSI09:1,2012-02-05T07:00:00Z,29.1015,-89.9782,0.0,2.462,260.0,,'11111222,11111222,99999999' 
WAVCIS,ioos:station:WAVCIS:CSI09:1,2012-02-05T08:00:00Z,29.1015,-89.9782,0.0,3.854,328.0,,'11111222,11111222,99999999' 
WAVCIS,ioos:station:WAVCIS:CSI09:1,2012-02-05T09:00:00Z,29.1015,-89.9782,0.0,6.29,9.0,,'11111222,11111222,99999999' 
WAVCIS,ioos:station:WAVCIS:CSI09:1,2012-02-05T10:00:00Z,29.1015,-89.9782,0.0,4.773,3.0,,'11111222,11111222,99999999' 
WAVCIS,ioos:station:WAVCIS:CSI09:1,2012-02-05T11:00:00Z,29.1015,-89.9782,0.0,5.576,12.0,,'11111222,11111222,99999999' 
WAVCIS,ioos:station:WAVCIS:CSI09:1,2012-02-05T12:00:00Z,29.1015,-89.9782,0.0,7.55,1.0,,'11111222,11111222,99999999' 
WAVCIS,ioos:station:WAVCIS:CSI09:1,2012-02-05T13:00:00Z,29.1015,-89.9782,0.0,7.77,354.0,,'11111222,11111222,99999999' 
WAVCIS,ioos:station:WAVCIS:CSI09:1,2012-02-05T14:00:00Z,29.1015,-89.9782,0.0,7.13,6.0,,'11111222,11111222,99999999' 
WAVCIS,ioos:station:WAVCIS:CSI09:1,2012-02-05T15:00:00Z,29.1015,-89.9782,0.0,8.57,5.0,,'11111222,11111222,99999999' 
WAVCIS,ioos:station:WAVCIS:CSI09:1,2012-02-05T16:00:00Z,29.1015,-89.9782,0.0,9.57,11.0,,'11111222,11111222,99999999' 
WAVCIS,ioos:station:WAVCIS:CSI09:1,2012-02-05T17:00:00Z,29.1015,-89.9782,0.0,9.42,13.0,,'11111222,11111222,99999999' 
WAVCIS,ioos:station:WAVCIS:CSI09:1,2012-02-05T18:00:00Z,29.1015,-89.9782,0.0,8.0,7.0,,'11111222,11111222,99999999' 
WAVCIS,ioos:station:WAVCIS:CSI09:1,2012-02-05T19:00:00Z,29.1015,-89.9782,0.0,8.03,11.0,,'11111222,11111222,99999999' 
WAVCIS,ioos:station:WAVCIS:CSI09:1,2012-02-05T20:00:00Z,29.1015,-89.9782,0.0,8.73,0.0,,'11111222,11111222,99999999' 
WAVCIS,ioos:station:WAVCIS:CSI09:1,2012-02-05T21:00:00Z,29.1015,-89.9782,0.0,7.8,10.0,,'11111222,11111222,99999999' 
WAVCIS,ioos:station:WAVCIS:CSI09:1,2012-02-05T22:00:00Z,29.1015,-89.9782,0.0,7.18,30.0,,'11111222,11111222,99999999' 
WAVCIS,ioos:station:WAVCIS:CSI09:1,2012-02-05T23:00:00Z,29.1015,-89.9782,0.0,7.78,17.0,,'11111222,11111222,99999999' 
WAVCIS,ioos:station:WAVCIS:CSI09:1,2012-02-06T00:00:00Z,29.1015,-89.9782,0.0,7.71,10.0,,'11111222,11111222,99999999' 
WAVCIS,ioos:station:WAVCIS:CSI09:1,2012-02-06T01:00:00Z,29.1015,-89.9782,0.0,11.64,357.0,,'11111222,11111222,99999999' 
WAVCIS,ioos:station:WAVCIS:CSI09:1,2012-02-06T02:00:00Z,29.1015,-89.9782,0.0,10.7,7.0,,'11111222,11111222,99999999' 
WAVCIS,ioos:station:WAVCIS:CSI09:1,2012-02-06T03:00:00Z,29.1015,-89.9782,0.0,10.36,11.0,,'11111222,11111222,99999999' 
WAVCIS,ioos:station:WAVCIS:CSI09:1,2012-02-06T04:00:00Z,29.1015,-89.9782,0.0,11.24,4.0,,'11111222,11111222,99999999' 
WAVCIS,ioos:station:WAVCIS:CSI09:1,2012-02-06T05:00:00Z,29.1015,-89.9782,0.0,10.61,4.0,,'11111222,11111222,99999999' 
WAVCIS,ioos:station:WAVCIS:CSI09:1,2012-02-06T06:00:00Z,29.1015,-89.9782,0.0,11.65,18.0,,'11111222,11111222,99999999' 
WAVCIS,ioos:station:WAVCIS:CSI09:1,2012-02-06T07:00:00Z,29.1015,-89.9782,0.0,10.84,27.0,,'11111222,11111222,99999999' 
WAVCIS,ioos:station:WAVCIS:CSI09:1,2012-02-06T08:00:00Z,29.1015,-89.9782,0.0,10.41,22.0,,'11111222,11111222,99999999' 
WAVCIS,ioos:station:WAVCIS:CSI09:1,2012-02-06T09:00:00Z,29.1015,-89.9782,0.0,11.46,16.0,,'11111222,11111222,99999999' 
WAVCIS,ioos:station:WAVCIS:CSI09:1,2012-02-06T10:00:00Z,29.1015,-89.9782,0.0,10.18,18.0,,'11111222,11111222,99999999' 
WAVCIS,ioos:station:WAVCIS:CSI09:1,2012-02-06T11:00:00Z,29.1015,-89.9782,0.0,10.14,25.0,,'11111222,11111222,99999999' 
WAVCIS,ioos:station:WAVCIS:CSI09:1,2012-02-06T12:00:00Z,29.1015,-89.9782,0.0,11.2,17.0,,'11111222,11111222,99999999' 
WAVCIS,ioos:station:WAVCIS:CSI09:1,2012-02-06T13:00:00Z,29.1015,-89.9782,0.0,10.38,14.0,,'11111222,11111222,99999999' 
WAVCIS,ioos:station:WAVCIS:CSI09:1,2012-02-06T14:00:00Z,29.1015,-89.9782,0.0,9.16,13.0,,'11111222,11111222,99999999' 
WAVCIS,ioos:station:WAVCIS:CSI09:1,2012-02-06T15:00:00Z,29.1015,-89.9782,0.0,8.29,27.0,,'11111222,11111222,99999999' 
WAVCIS,ioos:station:WAVCIS:CSI09:1,2012-02-06T16:00:00Z,29.1015,-89.9782,0.0,8.15,29.0,,'11111222,11111222,99999999' 
WAVCIS,ioos:station:WAVCIS:CSI09:1,2012-02-06T17:00:00Z,29.1015,-89.9782,0.0,7.25,22.0,,'11111222,11111222,99999999' 
WAVCIS,ioos:station:WAVCIS:CSI09:1,2012-02-06T18:00:00Z,29.1015,-89.9782,0.0,6.096,27.0,,'11111222,11111222,99999999' 
WAVCIS,ioos:station:WAVCIS:CSI09:1,2012-02-06T19:00:00Z,29.1015,-89.9782,0.0,4.948,37.0,,'11111222,11111222,99999999' 
WAVCIS,ioos:station:WAVCIS:CSI09:1,2012-02-06T20:00:00Z,29.1015,-89.9782,0.0,4.044,33.0,,'11111222,11111222,99999999' 
WAVCIS,ioos:station:WAVCIS:CSI09:1,2012-02-06T21:00:00Z,29.1015,-89.9782,0.0,4.006,29.0,,'11111222,11111222,99999999' 
WAVCIS,ioos:station:WAVCIS:CSI09:1,2012-02-06T22:00:00Z,29.1015,-89.9782,0.0,5.17,5.0,,'11111222,11111222,99999999' 
WAVCIS,ioos:station:WAVCIS:CSI09:1,2012-02-06T23:00:00Z,29.1015,-89.9782,0.0,6.828,3.0,,'11111222,11111222,99999999' 
WAVCIS,ioos:station:WAVCIS:CSI09:1,2012-02-07T00:00:00Z,29.1015,-89.9782,0.0,7.44,4.0,,'11111222,11111222,99999999' 
WAVCIS,ioos:station:WAVCIS:CSI09:1,2012-02-07T01:00:00Z,29.1015,-89.9782,0.0,6.529,13.0,,'11111222,11111222,99999999' 
WAVCIS,ioos:station:WAVCIS:CSI09:1,2012-02-07T02:00:00Z,29.1015,-89.9782,0.0,6.681,12.0,,'11111222,11111222,99999999' 
WAVCIS,ioos:station:WAVCIS:CSI09:1,2012-02-07T03:00:00Z,29.1015,-89.9782,0.0,5.886,28.0,,'11111222,11111222,99999999' 
WAVCIS,ioos:station:WAVCIS:CSI09:1,2012-02-07T04:00:00Z,29.1015,-89.9782,0.0,5.891,23.0,,'11111222,11111222,99999999' 
WAVCIS,ioos:station:WAVCIS:CSI09:1,2012-02-07T05:00:00Z,29.1015,-89.9782,0.0,6.779,30.0,,'11111222,11111222,99999999' 
WAVCIS,ioos:station:WAVCIS:CSI09:1,2012-02-07T06:00:00Z,29.1015,-89.9782,0.0,5.982,26.0,,'11111222,11111222,99999999' 
WAVCIS,ioos:station:WAVCIS:CSI09:1,2012-02-07T07:00:00Z,29.1015,-89.9782,0.0,6.147,42.0,,'11111222,11111222,99999999' 
WAVCIS,ioos:station:WAVCIS:CSI09:1,2012-02-07T08:00:00Z,29.1015,-89.9782,0.0,7.71,31.0,,'11111222,11111222,99999999' 
WAVCIS,ioos:station:WAVCIS:CSI09:1,2012-02-07T09:00:00Z,29.1015,-89.9782,0.0,6.627,21.0,,'11111222,11111222,99999999' 
WAVCIS,ioos:station:WAVCIS:CSI09:1,2012-02-07T10:00:00Z,29.1015,-89.9782,0.0,7.11,35.0,,'11111222,11111222,99999999' 
WAVCIS,ioos:station:WAVCIS:CSI09:1,2012-02-07T11:00:00Z,29.1015,-89.9782,0.0,8.1,39.0,,'11111222,11111222,99999999' 
WAVCIS,ioos:station:WAVCIS:CSI09:1,2012-02-07T12:00:00Z,29.1015,-89.9782,0.0,7.62,25.0,,'11111222,11111222,99999999' 
WAVCIS,ioos:station:WAVCIS:CSI09:1,2012-02-07T13:00:00Z,29.1015,-89.9782,0.0,8.18,17.0,,'11111222,11111222,99999999' 
WAVCIS,ioos:station:WAVCIS:CSI09:1,2012-02-07T14:00:00Z,29.1015,-89.9782,0.0,7.73,34.0,,'11111222,11111222,99999999' 
WAVCIS,ioos:station:WAVCIS:CSI09:1,2012-02-07T15:00:00Z,29.1015,-89.9782,0.0,6.419,44.0,,'11111222,11111222,99999999' 
WAVCIS,ioos:station:WAVCIS:CSI09:1,2012-02-07T16:00:00Z,29.1015,-89.9782,0.0,5.491,44.0,,'11111222,11111222,99999999' 
WAVCIS,ioos:station:WAVCIS:CSI09:1,2012-02-07T17:00:00Z,29.1015,-89.9782,0.0,5.499,42.0,,'11111222,11111222,99999999' 
WAVCIS,ioos:station:WAVCIS:CSI09:1,2012-02-07T18:00:00Z,29.1015,-89.9782,0.0,4.578,50.0,,'11111222,11111222,99999999' 
WAVCIS,ioos:station:WAVCIS:CSI09:1,2012-02-07T19:00:00Z,29.1015,-89.9782,0.0,2.895,41.0,,'11111222,11111222,99999999' 
WAVCIS,ioos:station:WAVCIS:CSI09:1,2012-02-07T20:00:00Z,29.1015,-89.9782,0.0,1.946,61.0,,'11111222,11111222,99999999' 
WAVCIS,ioos:station:WAVCIS:CSI09:1,2012-02-07T21:00:00Z,29.1015,-89.9782,0.0,2.248,38.0,,'11111222,11111222,99999999' 
WAVCIS,ioos:station:WAVCIS:CSI09:1,2012-02-07T22:00:00Z,29.1015,-89.9782,0.0,3.238,58.0,,'11111222,11111222,99999999' 
WAVCIS,ioos:station:WAVCIS:CSI09:1,2012-02-07T23:00:00Z,29.1015,-89.9782,0.0,2.647,59.0,,'11111222,11111222,99999999' 
WAVCIS,ioos:station:WAVCIS:CSI09:1,2012-02-08T00:00:00Z,29.1015,-89.9782,0.0,3.532,67.0,,'11111222,11111222,99999999' 
WAVCIS,ioos:station:WAVCIS:CSI09:1,2012-02-08T01:00:00Z,29.1015,-89.9782,0.0,4.03,57.0,,'11111222,11111222,99999999' 
WAVCIS,ioos:station:WAVCIS:CSI09:1,2012-02-08T02:00:00Z,29.1015,-89.9782,0.0,2.706,50.0,,'11111222,11111222,99999999' 
WAVCIS,ioos:station:WAVCIS:CSI09:1,2012-02-08T03:00:00Z,29.1015,-89.9782,0.0,1.385,52.0,,'11111222,11111222,99999999' 
WAVCIS,ioos:station:WAVCIS:CSI09:1,2012-02-08T04:00:00Z,29.1015,-89.9782,0.0,0.963,41.0,,'11111222,11111222,99999999' 
WAVCIS,ioos:station:WAVCIS:CSI09:1,2012-02-08T05:00:00Z,29.1015,-89.9782,0.0,0.76,322.0,,'11111222,11111222,99999999' 
WAVCIS,ioos:station:WAVCIS:CSI09:1,2012-02-08T06:00:00Z,29.1015,-89.9782,0.0,3.482,302.0,,'11111222,11111222,99999999' 
WAVCIS,ioos:station:WAVCIS:CSI09:1,2012-02-08T07:00:00Z,29.1015,-89.9782,0.0,3.41,316.0,,'11111222,11111222,99999999' 
WAVCIS,ioos:station:WAVCIS:CSI09:1,2012-02-08T08:00:00Z,29.1015,-89.9782,0.0,5.838,346.0,,'11111222,11111222,99999999' 
WAVCIS,ioos:station:WAVCIS:CSI09:1,2012-02-08T09:00:00Z,29.1015,-89.9782,0.0,6.984,348.0,,'11111222,11111222,99999999' 
WAVCIS,ioos:station:WAVCIS:CSI09:1,2012-02-08T10:00:00Z,29.1015,-89.9782,0.0,8.57,357.0,,'11111222,11111222,99999999' 
WAVCIS,ioos:station:WAVCIS:CSI09:1,2012-02-08T11:00:00Z,29.1015,-89.9782,0.0,8.19,9.0,,'11111222,11111222,99999999' 
WAVCIS,ioos:station:WAVCIS:CSI09:1,2012-02-08T12:00:00Z,29.1015,-89.9782,0.0,8.72,3.0,,'11111222,11111222,99999999' 
WAVCIS,ioos:station:WAVCIS:CSI09:1,2012-02-08T13:00:00Z,29.1015,-89.9782,0.0,9.75,2.0,,'11111222,11111222,99999999' 
WAVCIS,ioos:station:WAVCIS:CSI09:1,2012-02-08T14:00:00Z,29.1015,-89.9782,0.0,11.15,11.0,,'11111222,11111222,99999999' 
WAVCIS,ioos:station:WAVCIS:CSI09:1,2012-02-08T15:00:00Z,29.1015,-89.9782,0.0,11.73,15.0,,'11111222,11111222,99999999' 
WAVCIS,ioos:station:WAVCIS:CSI09:1,2012-02-08T16:00:00Z,29.1015,-89.9782,0.0,10.99,20.0,,'11111222,11111222,99999999' 
WAVCIS,ioos:station:WAVCIS:CSI09:1,2012-02-08T17:00:00Z,29.1015,-89.9782,0.0,9.54,22.0,,'11111222,11111222,99999999' 
WAVCIS,ioos:station:WAVCIS:CSI09:1,2012-02-08T18:00:00Z,29.1015,-89.9782,0.0,8.45,28.0,,'11111222,11111222,99999999' 
WAVCIS,ioos:station:WAVCIS:CSI09:1,2012-02-08T19:00:00Z,29.1015,-89.9782,0.0,7.44,21.0,,'11111222,11111222,99999999' 
WAVCIS,ioos:station:WAVCIS:CSI09:1,2012-02-08T20:00:00Z,29.1015,-89.9782,0.0,6.591,15.0,,'11111222,11111222,99999999' 
WAVCIS,ioos:station:WAVCIS:CSI09:1,2012-02-08T21:00:00Z,29.1015,-89.9782,0.0,5.93,14.0,,'11111222,11111222,99999999' 
WAVCIS,ioos:station:WAVCIS:CSI09:1,2012-02-08T22:00:00Z,29.1015,-89.9782,0.0,5.9,16.0,,'11111222,11111222,99999999' 
WAVCIS,ioos:station:WAVCIS:CSI09:1,2012-02-08T23:00:00Z,29.1015,-89.9782,0.0,5.652,30.0,,'11111222,11111222,99999999' 
WAVCIS,ioos:station:WAVCIS:CSI09:1,2012-02-09T00:00:00Z,29.1015,-89.9782,0.0,5.979,23.0,,'11111222,11111222,99999999' 
WAVCIS,ioos:station:WAVCIS:CSI09:1,2012-02-09T01:00:00Z,29.1015,-89.9782,0.0,7.09,3.0,,'11111222,11111222,99999999' 
WAVCIS,ioos:station:WAVCIS:CSI09:1,2012-02-09T02:00:00Z,29.1015,-89.9782,0.0,7.01,356.0,,'11111222,11111222,99999999' 
WAVCIS,ioos:station:WAVCIS:CSI09:1,2012-02-09T03:00:00Z,29.1015,-89.9782,0.0,9.13,10.0,,'11111222,11111222,99999999' 
WAVCIS,ioos:station:WAVCIS:CSI09:1,2012-02-09T04:00:00Z,29.1015,-89.9782,0.0,9.96,29.0,,'11111222,11111222,99999999' 
WAVCIS,ioos:station:WAVCIS:CSI09:1,2012-02-09T05:00:00Z,29.1015,-89.9782,0.0,9.4,28.0,,'11111222,11111222,99999999' 
WAVCIS,ioos:station:WAVCIS:CSI09:1,2012-02-09T06:00:00Z,29.1015,-89.9782,0.0,9.71,26.0,,'11111222,11111222,99999999' 
WAVCIS,ioos:station:WAVCIS:CSI09:1,2012-02-09T07:00:00Z,29.1015,-89.9782,0.0,10.97,29.0,,'11111222,11111222,99999999' 
WAVCIS,ioos:station:WAVCIS:CSI09:1,2012-02-09T08:00:00Z,29.1015,-89.9782,0.0,10.44,28.0,,'11111222,11111222,99999999' 